This is the latest recevied weather packets stored in our database for station/object OE-11073. If no packets are shown the sender has not sent any weather packets the latest 10 day(s).
| Time | Temp. | Humidity | Pressure | Rain* | Wind** | Luminosity | Snow |
|---|---|---|---|---|---|---|---|
| 1787679683 | 16.67° C | 92% | - | 0 mm | - | 23 W/m² | - |
| 1787679310 | 16.67° C | 89% | - | 0 mm | - | 31 W/m² | - |
| 1787678710 | 16.67° C | 90% | - | 0 mm | - | 54 W/m² | - |
| 1787677883 | 16.67° C | 90% | - | 0.25 mm | - | 61 W/m² | - |
| 1787677510 | 16.67° C | 90% | - | 0.51 mm | - | 69 W/m² | - |
| 1787676909 | 16.67° C | 87% | - | 0.51 mm | - | 84 W/m² | - |
| 1787676083 | 16.67° C | 87% | - | 0.76 mm | - | 69 W/m² | - |
| 1787675709 | 16.67° C | 85% | - | 0.76 mm | - | 69 W/m² | - |
| 1787675109 | 16.67° C | 86% | - | 0.76 mm | - | 77 W/m² | - |
| 1787674283 | 16.67° C | 86% | - | 0.51 mm | - | 77 W/m² | - |
| 1787673910 | 16.67° C | 81% | - | 0.51 mm | - | 69 W/m² | - |
| 1787673310 | 16.67° C | 82% | - | 0.51 mm | - | 69 W/m² | - |
| 1787672483 | 16.67° C | 82% | - | 0.51 mm | - | 54 W/m² | - |
| 1787672110 | 17.22° C | 79% | - | 0.25 mm | - | 46 W/m² | - |
| 1787671510 | 17.22° C | 78% | - | 0.25 mm | - | 69 W/m² | - |
| 1787670683 | 17.22° C | 79% | - | 0.25 mm | - | 61 W/m² | - |
| 1787670309 | 17.22° C | 79% | - | 0.51 mm | - | 61 W/m² | - |
| 1787669710 | 17.22° C | 82% | - | 0.51 mm | - | 69 W/m² | - |
| 1787668883 | 17.22° C | 81% | - | 0.25 mm | - | 69 W/m² | - |
| 1787668509 | 17.22° C | 82% | - | 0 mm | - | 115 W/m² | - |
| 1787667909 | 17.78° C | 81% | - | 0 mm | - | 145 W/m² | - |
| 1787667083 | 17.78° C | 81% | - | 0 mm | - | 153 W/m² | - |
| 1787666710 | 17.78° C | 81% | - | 0 mm | - | 145 W/m² | - |
| 1787666110 | 18.33° C | 77% | - | 0 mm | - | 115 W/m² | - |
| 1787665283 | 18.33° C | 78% | - | 0 mm | - | 107 W/m² | - |
* Rain latest hour (hover to see other rain measurements)
** Current wind speed in m/s (hover to see current wind gust speed)